• En España
  • Lista de países
  • Para 7 días
  • Temperatura del agua
  • Mapa Satelital
  • El tiempo en el mapa
  • Informadores
  • user-avatar
    Iniciar sesión

    Tiempo cada hora Dobryn

    Hoy, 16 Agosto, Jueves

    Tiempo Temperatura Precipitaciones Viento Presión Humedad
    00:00 +20°C° 0,1 mm 2 mps 741 mmHg 77%
    01:00 +21°C° 0,1 mm 1 mps 741 mmHg 81%
    02:00 +20°C° 0 mm 1 mps 741 mmHg 87%
    03:00 +20°C° 0,1 mm 1 mps 741 mmHg 88%
    04:00 +20°C° 0,1 mm 1 mps 741 mmHg 90%
    05:00 +19°C° 0,1 mm 1 mps 741 mmHg 91%
    06:00 +20°C° 0,1 mm 2 mps 741 mmHg 85%
    07:00 +23°C° 0,1 mm 2 mps 742 mmHg 79%
    08:00 +24°C° 0,1 mm 2 mps 742 mmHg 73%
    09:00 +25°C° 0 mm 2 mps 742 mmHg 67%
    10:00 +26°C° 0 mm 2 mps 742 mmHg 62%
    11:00 +27°C° 0 mm 2 mps 742 mmHg 56%
    12:00 +28°C° 0 mm 2 mps 742 mmHg 55%
    13:00 +28°C° 0 mm 2 mps 742 mmHg 53%
    14:00 +29°C° 0 mm 2 mps 742 mmHg 51%
    15:00 +28°C° 0 mm 2 mps 742 mmHg 54%
    16:00 +28°C° 0 mm 2 mps 742 mmHg 57%
    17:00 +27°C° 0 mm 2 mps 742 mmHg 59%
    18:00 +26°C° 0,1 mm 2 mps 742 mmHg 64%
    19:00 +24°C° 0,1 mm 2 mps 742 mmHg 69%
    20:00 +21°C° 0,1 mm 2 mps 742 mmHg 74%
    21:00 +21°C° 0 mm 2 mps 742 mmHg 77%
    22:00 +20°C° 0 mm 2 mps 743 mmHg 80%
    23:00 +20°C° 0 mm 2 mps 743 mmHg 82%

    Mañana, 17 Agosto, Viernes

    Tiempo Temperatura Precipitaciones Viento Presión Humedad
    00:00 +19°C° 0 mm 2 mps 743 mmHg 84%
    01:00 +19°C° 0 mm 2 mps 743 mmHg 86%
    02:00 +18°C° 0 mm 2 mps 743 mmHg 88%
    03:00 +18°C° 0 mm 2 mps 743 mmHg 90%
    04:00 +18°C° 0 mm 2 mps 743 mmHg 91%
    05:00 +18°C° 0 mm 2 mps 743 mmHg 93%
    06:00 +19°C° 0 mm 2 mps 744 mmHg 88%
    07:00 +20°C° 0 mm 3 mps 744 mmHg 83%
    08:00 +22°C° 0 mm 3 mps 744 mmHg 78%
    09:00 +24°C° 0,2 mm 3 mps 744 mmHg 73%
    10:00 +25°C° 0,2 mm 4 mps 744 mmHg 69%
    11:00 +26°C° 0,2 mm 4 mps 744 mmHg 64%
    12:00 +26°C° 0,6 mm 4 mps 744 mmHg 64%
    13:00 +26°C° 0,6 mm 4 mps 744 mmHg 63%
    14:00 +27°C° 0,6 mm 4 mps 744 mmHg 63%
    15:00 +26°C° 0,3 mm 4 mps 744 mmHg 65%
    16:00 +26°C° 0,3 mm 4 mps 744 mmHg 67%
    17:00 +25°C° 0,3 mm 4 mps 744 mmHg 69%
    18:00 +23°C° 0,1 mm 4 mps 744 mmHg 73%
    19:00 +21°C° 0,1 mm 3 mps 744 mmHg 78%
    20:00 +20°C° 0,1 mm 3 mps 744 mmHg 82%
    21:00 +19°C° 0 mm 3 mps 744 mmHg 81%
    22:00 +19°C° 0 mm 3 mps 744 mmHg 81%
    23:00 +18°C° 0 mm 4 mps 744 mmHg 80%

    Pasado mañana, 18 Agosto, Sábado

    Tiempo Temperatura Precipitaciones Viento Presión Humedad
    00:00 +18°C° 0 mm 4 mps 744 mmHg 81%
    01:00 +17°C° 0 mm 3 mps 744 mmHg 82%
    02:00 +17°C° 0 mm 3 mps 744 mmHg 83%
    03:00 +16°C° 0 mm 3 mps 745 mmHg 84%
    04:00 +16°C° 0 mm 3 mps 745 mmHg 85%
    05:00 +16°C° 0 mm 3 mps 745 mmHg 86%
    06:00 +17°C° 0 mm 4 mps 745 mmHg 80%
    07:00 +19°C° 0 mm 5 mps 745 mmHg 74%
    08:00 +20°C° 0 mm 5 mps 745 mmHg 68%
    09:00 +21°C° 0 mm 5 mps 745 mmHg 63%
    10:00 +23°C° 0 mm 5 mps 746 mmHg 59%
    11:00 +25°C° 0 mm 5 mps 746 mmHg 55%
    12:00 +25°C° 0 mm 5 mps 745 mmHg 54%
    13:00 +26°C° 0 mm 5 mps 745 mmHg 53%
    14:00 +26°C° 0 mm 5 mps 745 mmHg 52%
    15:00 +26°C° 0 mm 4 mps 745 mmHg 54%
    16:00 +25°C° 0 mm 4 mps 745 mmHg 56%
    17:00 +25°C° 0 mm 3 mps 745 mmHg 59%
    18:00 +22°C° 0 mm 3 mps 745 mmHg 62%
    19:00 +20°C° 0 mm 3 mps 745 mmHg 66%
    20:00 +19°C° 0 mm 3 mps 745 mmHg 69%
    21:00 +18°C° 0 mm 3 mps 745 mmHg 70%
    22:00 +18°C° 0 mm 3 mps 745 mmHg 71%
    23:00 +17°C° 0 mm 3 mps 745 mmHg 72%

    19 Agosto, Domingo

    Tiempo Temperatura Precipitaciones Viento Presión Humedad
    00:00 +17°C° 0 mm 3 mps 745 mmHg 73%
    01:00 +16°C° 0 mm 3 mps 745 mmHg 74%
    02:00 +16°C° 0 mm 3 mps 745 mmHg 75%
    03:00 +14°C° 0 mm 3 mps 745 mmHg 76%
    04:00 +14°C° 0 mm 3 mps 745 mmHg 77%
    05:00 +14°C° 0 mm 3 mps 745 mmHg 78%
    06:00 +16°C° 0 mm 3 mps 745 mmHg 73%
    07:00 +18°C° 0 mm 3 mps 746 mmHg 68%
    08:00 +20°C° 0 mm 4 mps 746 mmHg 63%
    09:00 +21°C° 0 mm 4 mps 746 mmHg 58%
    10:00 +23°C° 0 mm 4 mps 746 mmHg 54%
    11:00 +25°C° 0 mm 4 mps 745 mmHg 49%
    12:00 +25°C° 0 mm 4 mps 745 mmHg 48%
    13:00 +26°C° 0 mm 3 mps 745 mmHg 46%
    14:00 +26°C° 0 mm 3 mps 745 mmHg 45%
    15:00 +26°C° 0 mm 3 mps 744 mmHg 48%
    16:00 +25°C° 0 mm 2 mps 744 mmHg 51%
    17:00 +25°C° 0 mm 2 mps 744 mmHg 54%
    18:00 +23°C° 0 mm 2 mps 744 mmHg 57%
    19:00 +21°C° 0 mm 2 mps 744 mmHg 59%
    20:00 +19°C° 0 mm 2 mps 744 mmHg 61%
    21:00 +19°C° 0 mm 2 mps 744 mmHg 62%
    22:00 +18°C° 0 mm 2 mps 744 mmHg 63%
    23:00 +18°C° 0 mm 2 mps 744 mmHg 64%

    20 Agosto, Lunes

    Tiempo Temperatura Precipitaciones Viento Presión Humedad
    00:00 +18°C° 0 mm 2 mps 744 mmHg 64%
    01:00 +18°C° 0 mm 2 mps 743 mmHg 63%
    02:00 +18°C° 0 mm 3 mps 743 mmHg 63%
    03:00 +18°C° 0 mm 3 mps 743 mmHg 63%
    04:00 +17°C° 0 mm 3 mps 743 mmHg 63%
    05:00 +17°C° 0 mm 3 mps 743 mmHg 63%
    06:00 +18°C° 0 mm 3 mps 744 mmHg 62%
    07:00 +19°C° 0 mm 3 mps 744 mmHg 60%
    08:00 +20°C° 0 mm 4 mps 744 mmHg 59%
    09:00 +22°C° 0 mm 4 mps 744 mmHg 55%
    10:00 +23°C° 0 mm 4 mps 744 mmHg 52%
    11:00 +26°C° 0 mm 4 mps 744 mmHg 48%
    12:00 +26°C° 0 mm 4 mps 743 mmHg 48%
    13:00 +27°C° 0 mm 4 mps 743 mmHg 47%
    14:00 +27°C° 0 mm 4 mps 743 mmHg 46%
    15:00 +27°C° 0,1 mm 4 mps 743 mmHg 50%
    16:00 +26°C° 0,1 mm 3 mps 743 mmHg 54%
    17:00 +26°C° 0,1 mm 3 mps 743 mmHg 59%
    18:00 +24°C° 0 mm 3 mps 743 mmHg 62%
    19:00 +22°C° 0 mm 3 mps 743 mmHg 65%
    20:00 +20°C° 0 mm 2 mps 743 mmHg 68%
    21:00 +20°C° 0 mm 2 mps 743 mmHg 70%
    22:00 +19°C° 0 mm 2 mps 743 mmHg 71%
    23:00 +19°C° 0 mm 2 mps 743 mmHg 73%

    21 Agosto, Martes

    Tiempo Temperatura Precipitaciones Viento Presión Humedad
    00:00 +18°C° 0,1 mm 2 mps 743 mmHg 75%
    01:00 +18°C° 0,1 mm 2 mps 743 mmHg 76%
    02:00 +17°C° 0,1 mm 2 mps 743 mmHg 78%
    03:00 +17°C° 0 mm 2 mps 743 mmHg 81%
    04:00 +17°C° 0 mm 2 mps 743 mmHg 83%
    05:00 +17°C° 0 mm 2 mps 743 mmHg 85%
    06:00 +18°C° 0 mm 2 mps 743 mmHg 81%
    07:00 +20°C° 0 mm 2 mps 743 mmHg 77%
    08:00 +21°C° 0 mm 2 mps 743 mmHg 74%
    09:00 +24°C° 0 mm 2 mps 743 mmHg 68%
    10:00 +25°C° 0 mm 2 mps 743 mmHg 62%
    11:00 +26°C° 0 mm 2 mps 743 mmHg 57%
    12:00 +27°C° 0,2 mm 3 mps 743 mmHg 55%
    13:00 +27°C° 0,2 mm 3 mps 743 mmHg 54%
    14:00 +28°C° 0,2 mm 3 mps 743 mmHg 53%
    15:00 +27°C° 0,2 mm 3 mps 743 mmHg 56%
    16:00 +27°C° 0,2 mm 3 mps 743 mmHg 60%
    17:00 +26°C° 0,2 mm 2 mps 743 mmHg 63%
    18:00 +25°C° 0 mm 2 mps 743 mmHg 68%
    19:00 +23°C° 0 mm 2 mps 743 mmHg 74%
    20:00 +20°C° 0 mm 2 mps 743 mmHg 79%
    21:00 +20°C° 0 mm 2 mps 743 mmHg 81%
    22:00 +19°C° 0 mm 2 mps 743 mmHg 82%
    23:00 +19°C° 0 mm 2 mps 743 mmHg 84%
    Mostrar más